Weather in Bolshie Uky

Russia / Omsk Oblast     56°56′54″N   72°37′44″E
temp.,
°C
wind,
m/s
gust,
m/s
humid.,
%
clouds,
%
prec.,
mm/h
press.,
hPa
HPBL,
m
6 march, sat
sat600:00−4sw4119094 0.1 1002372
03:00−2ssw51097100 0.4 1000523
06:00−3ssw61294100 1.9 997714
09:000wsw61296100 2.6 996833
12:00−3w81288100 2.9 9981064
15:00−5wsw81187100 0.1 1002943
18:00−8wsw71289100 0.3 1004878
21:00−10wsw51390100 0.0 1006536
7 march, sun
sun700:00−12wsw5129391 0.1 1008359
03:00−15sw4109671 0.0 1009205
06:00−16sw489781 0.0 1011180
09:00−16sw499679 0.0 1012265
12:00−10wsw488766 0.0 1014558
15:00−8sw46842 0.0 1015596
18:00−10sse249442 0.0 1014108
21:00−10se3894100 0.0 1012275
8 march, mon
mon800:00−9ese51195100 0.8 1008457
03:00−8ese51295100 2.1 1001454
06:000ssw81398100 5.6 997890
09:000ssw81594100 1.0 993916
12:00−7wnw81395100 2.4 994523
15:00−7wnw81387100 0.3 9991109
18:00−8w71287100 0.4 1005899
21:00−12w51292100 0.1 1009545
9 march, tue
tue900:00−13wsw4994100 0.1 1013310
03:00−17sw369779 0.0 1014131
06:00−18ssw379857 0.0 1015139
09:00−16s489692 0.0 1016253
12:00−11s589495 0.1 1014406
15:00−8s61194100 0.1 1012541
18:00−7s71490100 0.8 1009721
21:00−7ssw81692100 0.2 1007937
10 march, wed
wed1000:00−7sw71490100 0.8 1006807
03:00−9sw61392100 0.1 1007511
06:00−10sw5129298 0.1 1007407
09:00−12sw4109471 0.0 1008358
12:00−9wsw369286 0.0 1009397
15:00−8wsw3590100 0.0 1009556
18:00−9w2493100 0.1 1008223
21:00−12w2294100 0.0 100821